Change the Weather History Date:

Wednesday, April 13, 2011

  Actual Average Record
Temperature  
Mean Temperature 79 °F -  
Max Temperature 95 °F 92 °F 99 °F (2013)
Min Temperature 63 °F 76 °F 66 °F (2011)
Cooling Degree Days 14    
Growing Degree Days 29 (Base 50)    
Moisture  
Dew Point 56 °F    
Average Humidity 37    
Maximum Humidity 83    
Minimum Humidity 15    
Precipitation  
Precipitation 0.00 in - - ()
Sea Level Pressure  
Sea Level Pressure 29.82 in    
Wind  
Wind Speed 8 mph ()    
Max Wind Speed 20 mph    
Max Gust Speed 24 mph    
Visibility 10.3 miles    
Events      
Averages and records for this station are not official NWS values.
T = Trace of Precipitation, MM = Missing Value Source: Averaged Metar Reports

Daily Weather History Graph

Daily Weather History Graph

Search for Another Location

Airport or City:

Trip Planner

Search our weather history database for the weather conditions in past years. The results will help you decide how hot, cold, wet, or windy it might be!

Date:

Astronomy

Apr. 13, 2011 Rise Set
Actual Time 5:32 AM CST 5:53 PM CST
Civil Twilight 5:11 AM CST 6:14 PM CST
Nautical Twilight 4:46 AM CST 6:39 PM CST
Astronomical Twilight 4:21 AM CST 7:04 PM CST
Moon 1:46 PM CST (4/13) 1:36 AM CST (4/13)
Length of Visible Light 13h 03m
Length of Day
12h 20m
Waxing Gibbous, 74% of the Moon is Illuminated
Apr 13
Waxing Gibbous
Apr 17
Full
Apr 24
Last Quarter
May 3
New
May 10
First Quarter

Hourly Weather History & Observations

Time (CST) Temp. Heat Index Dew Point Humidity Pressure Visibility Wind Dir Wind Speed Gust Speed Precip Events Conditions
6:00 AM 67 °F - 60 °F 72% 29.82 in 12 mi Calm Calm - -   Clear
6:00 AM 66.2 °F - 60.8 °F 83% 29.85 in - Calm Calm - N/A   Clear
7:00 AM 77.0 °F - 62.6 °F 61% 29.86 in - South 4.6 mph - N/A   Clear
8:00 AM 80.6 °F 81.8 °F 62.6 °F 54% 29.89 in - NE 5.8 mph - N/A   Clear
9:00 AM 86 °F - 57 °F 27% 29.86 in 12 mi ENE 11.5 mph - -   Clear
9:00 AM 86.0 °F 84.9 °F 57.2 °F 37% 29.90 in - ENE 11.5 mph 24.2 mph N/A   Clear
10:00 AM 89.6 °F 87.3 °F 53.6 °F 29% 29.89 in - East 17.3 mph - N/A   Clear
11:00 AM 91.4 °F - 51.8 °F 26% 29.87 in - East 11.5 mph - N/A   Clear
12:00 PM 93 °F - 52 °F 16% 29.84 in 12 mi East 15.0 mph - -   Clear
12:00 PM 93.2 °F - 51.8 °F 24% 29.84 in - East 15.0 mph - N/A   Clear
1:00 PM 95.0 °F 92.7 °F 53.6 °F 25% 29.81 in - East 11.5 mph - N/A   Clear
2:00 PM 95.0 °F - 51.8 °F 23% 29.78 in - ENE 12.7 mph - N/A   Clear
3:00 PM 94 °F - 51 °F 15% 29.75 in 12 mi Calm Calm - -   Clear
4:00 PM 93.2 °F - 51.8 °F 24% 29.76 in - ENE 15.0 mph - N/A   Clear
5:00 PM 89.6 °F 87.3 °F 53.6 °F 29% 29.76 in - ENE 19.6 mph - N/A   Clear
6:00 PM 87 °F - 57 °F 25% 29.73 in 12 mi ENE 17.3 mph - -   Clear
6:00 PM 86.0 °F 84.9 °F 57.2 °F 37% 29.78 in - ENE 17.3 mph - N/A   Clear
7:00 PM 84.2 °F 85.0 °F 62.6 °F 48% 29.79 in 6.2 mi ENE 16.1 mph - N/A   Clear
8:00 PM 82.4 °F 83.4 °F 62.6 °F 51% 29.80 in 6.2 mi ENE 19.6 mph - N/A   Clear